TimeMST,TemperatureF,Dew PointF,Humidity,Sea Level PressureIn,VisibilityMPH,Wind Direction,Wind SpeedMPH,Gust SpeedMPH,PrecipitationIn,Events,Conditions,WindDirDegrees,DateUTC
12:06 AM,14.0,-4.0,45,30.09,10.0,North,4.6,-,N/A,,Clear,360,2013-01-05 07:06:00
12:26 AM,15.8,-7.6,35,30.09,10.0,North,5.8,-,N/A,,Clear,360,2013-01-05 07:26:00
12:46 AM,14.0,-7.6,38,30.09,10.0,North,6.9,-,N/A,,Clear,360,2013-01-05 07:46:00
1:06 AM,15.8,-7.6,35,30.10,10.0,West,4.6,-,N/A,,Scattered Clouds,280,2013-01-05 08:06:00
1:26 AM,15.8,-9.4,32,30.10,10.0,West,5.8,-,N/A,,Scattered Clouds,270,2013-01-05 08:26:00
1:46 AM,15.8,-13.0,27,30.11,10.0,North,6.9,17.3,N/A,,Clear,360,2013-01-05 08:46:00
2:06 AM,14.0,-11.2,32,30.11,10.0,North,8.1,16.1,N/A,,Clear,360,2013-01-05 09:06:00
2:26 AM,14.0,-13.0,29,30.12,10.0,North,13.8,17.3,N/A,,Clear,360,2013-01-05 09:26:00
2:46 AM,14.0,-13.0,29,30.13,10.0,NNW,6.9,-,N/A,,Clear,330,2013-01-05 09:46:00
3:06 AM,14.0,-14.8,27,30.14,10.0,North,8.1,-,N/A,,Clear,360,2013-01-05 10:06:00
3:26 AM,15.8,-14.8,25,30.14,10.0,North,16.1,23.0,N/A,,Clear,10,2013-01-05 10:26:00
3:46 AM,15.8,-14.8,25,30.13,10.0,NNE,17.3,23.0,N/A,,Clear,30,2013-01-05 10:46:00
4:06 AM,14.0,-13.0,29,30.13,10.0,NNE,18.4,26.5,N/A,,Clear,30,2013-01-05 11:06:00
4:26 AM,15.8,-11.2,30,30.12,10.0,NNE,24.2,38.0,N/A,,Clear,30,2013-01-05 11:26:00
4:46 AM,17.6,-13.0,25,30.13,10.0,NE,13.8,26.5,N/A,,Clear,40,2013-01-05 11:46:00
5:06 AM,17.6,-14.8,23,30.15,10.0,North,10.4,17.3,N/A,,Clear,10,2013-01-05 12:06:00
5:26 AM,15.8,-14.8,25,30.16,10.0,NE,9.2,17.3,N/A,,Clear,40,2013-01-05 12:26:00
5:46 AM,17.6,-14.8,23,30.17,10.0,North,9.2,16.1,N/A,,Clear,10,2013-01-05 12:46:00
6:06 AM,17.6,-14.8,23,30.17,10.0,NNE,16.1,24.2,N/A,,Clear,20,2013-01-05 13:06:00
6:26 AM,17.6,-16.6,21,30.17,10.0,NNE,10.4,23.0,N/A,,Clear,20,2013-01-05 13:26:00
6:46 AM,17.6,-14.8,23,30.19,10.0,NNE,15.0,24.2,N/A,,Clear,20,2013-01-05 13:46:00
7:06 AM,17.6,-16.6,21,30.20,10.0,North,8.1,17.3,N/A,,Clear,10,2013-01-05 14:06:00
7:26 AM,19.4,-14.8,21,30.20,10.0,North,9.2,18.4,N/A,,Clear,360,2013-01-05 14:26:00
7:46 AM,17.6,-14.8,23,30.21,10.0,North,4.6,-,N/A,,Clear,10,2013-01-05 14:46:00
8:06 AM,19.4,-13.0,23,30.22,10.0,NNE,12.7,23.0,N/A,,Clear,20,2013-01-05 15:06:00
8:26 AM,19.4,-14.8,21,30.23,10.0,North,8.1,-,N/A,,Clear,360,2013-01-05 15:26:00
9:06 AM,21.2,-13.0,22,30.24,10.0,NE,6.9,-,N/A,,Clear,50,2013-01-05 16:06:00
9:26 AM,23.0,-13.0,20,30.26,10.0,NE,6.9,20.7,N/A,,Clear,40,2013-01-05 16:26:00
10:06 AM,26.6,-14.8,16,30.27,10.0,NNW,3.5,-,N/A,,Clear,330,2013-01-05 17:06:00
10:26 AM,26.6,-14.8,16,30.28,10.0,Calm,Calm,-,N/A,,Clear,0,2013-01-05 17:26:00
10:46 AM,28.4,-14.8,15,30.28,10.0,NW,3.5,-,N/A,,Clear,310,2013-01-05 17:46:00
11:06 AM,26.6,-13.0,17,30.28,10.0,NNE,4.6,-,N/A,,Clear,20,2013-01-05 18:06:00
11:26 AM,26.6,-11.2,19,30.28,10.0,North,8.1,-,N/A,,Clear,360,2013-01-05 18:26:00
11:46 AM,26.6,-7.6,22,30.28,10.0,North,12.7,23.0,N/A,,Clear,10,2013-01-05 18:46:00
12:06 PM,26.6,-7.6,22,30.27,10.0,NE,10.4,20.7,N/A,,Clear,40,2013-01-05 19:06:00
12:26 PM,28.4,-7.6,21,30.27,10.0,Calm,Calm,-,N/A,,Clear,0,2013-01-05 19:26:00
12:46 PM,30.2,-5.8,21,30.27,10.0,West,5.8,-,N/A,,Clear,270,2013-01-05 19:46:00
1:06 PM,28.4,-7.6,21,30.26,10.0,NW,5.8,-,N/A,,Clear,310,2013-01-05 20:06:00
1:26 PM,30.2,-5.8,21,30.26,10.0,West,4.6,-,N/A,,Clear,260,2013-01-05 20:26:00
1:46 PM,28.4,1.4,31,30.26,10.0,SW,6.9,-,N/A,,Clear,220,2013-01-05 20:46:00
2:06 PM,28.4,1.4,31,30.26,10.0,South,3.5,-,N/A,,Clear,190,2013-01-05 21:06:00
2:26 PM,28.4,1.4,31,30.27,10.0,SSW,8.1,17.3,N/A,,Clear,210,2013-01-05 21:26:00
2:46 PM,28.4,1.4,31,30.27,10.0,SSW,8.1,-,N/A,,Clear,210,2013-01-05 21:46:00
3:06 PM,28.4,-0.4,29,30.27,10.0,SW,5.8,-,N/A,,Clear,230,2013-01-05 22:06:00
3:26 PM,28.4,-2.2,27,30.29,10.0,SW,3.5,-,N/A,,Clear,230,2013-01-05 22:26:00
4:06 PM,26.6,-2.2,29,30.29,10.0,South,6.9,-,N/A,,Clear,190,2013-01-05 23:06:00
4:26 PM,26.6,-4.0,26,30.30,10.0,Calm,Calm,-,N/A,,Clear,0,2013-01-05 23:26:00
4:46 PM,26.6,-4.0,26,30.31,10.0,Calm,Calm,-,N/A,,Clear,0,2013-01-05 23:46:00
5:06 PM,24.8,-5.8,26,30.31,10.0,North,8.1,-,N/A,,Clear,360,2013-01-06 00:06:00
5:26 PM,23.0,-7.6,26,30.32,10.0,NNW,5.8,-,N/A,,Clear,330,2013-01-06 00:26:00
5:46 PM,23.0,-7.6,26,30.32,10.0,NW,5.8,-,N/A,,Clear,310,2013-01-06 00:46:00
6:06 PM,23.0,-7.6,26,30.33,10.0,NNW,5.8,16.1,N/A,,Clear,330,2013-01-06 01:06:00
6:26 PM,21.2,-9.4,26,30.33,10.0,NNE,11.5,-,N/A,,Clear,20,2013-01-06 01:26:00
6:46 PM,23.0,-7.6,26,30.33,10.0,NNE,12.7,23.0,N/A,,Clear,20,2013-01-06 01:46:00
7:06 PM,23.0,-7.6,26,30.33,10.0,NNE,9.2,-,N/A,,Clear,30,2013-01-06 02:06:00
7:26 PM,21.2,-7.6,28,30.33,10.0,NNE,10.4,-,N/A,,Clear,20,2013-01-06 02:26:00
7:46 PM,21.2,-7.6,28,30.34,10.0,NNE,11.5,-,N/A,,Clear,20,2013-01-06 02:46:00
8:06 PM,21.2,-7.6,28,30.34,10.0,NNE,13.8,24.2,N/A,,Clear,30,2013-01-06 03:06:00
8:26 PM,21.2,-5.8,30,30.34,10.0,NNE,12.7,23.0,N/A,,Clear,30,2013-01-06 03:26:00
8:46 PM,19.4,-5.8,33,30.34,10.0,NE,11.5,-,N/A,,Clear,40,2013-01-06 03:46:00
9:06 PM,21.2,-5.8,30,30.35,10.0,NE,10.4,-,N/A,,Clear,40,2013-01-06 04:06:00
9:26 PM,19.4,-7.6,30,30.35,10.0,NE,8.1,-,N/A,,Clear,50,2013-01-06 04:26:00
9:46 PM,21.2,-5.8,30,30.36,10.0,NE,8.1,-,N/A,,Clear,40,2013-01-06 04:46:00
10:06 PM,21.2,-5.8,30,30.36,10.0,NE,5.8,-,N/A,,Clear,40,2013-01-06 05:06:00
10:26 PM,19.4,-5.8,33,30.37,10.0,NNW,4.6,-,N/A,,Clear,340,2013-01-06 05:26:00
10:46 PM,21.2,-7.6,28,30.37,10.0,Calm,Calm,-,N/A,,Clear,0,2013-01-06 05:46:00
11:06 PM,21.2,-7.6,28,30.37,10.0,Calm,Calm,-,N/A,,Clear,0,2013-01-06 06:06:00
11:26 PM,21.2,-7.6,28,30.37,10.0,Calm,Calm,-,N/A,,Clear,0,2013-01-06 06:26:00
11:47 PM,21.2,-5.8,30,30.37,10.0,Calm,Calm,-,N/A,,Clear,0,2013-01-06 06:47:00